SCP
0 0 0 0 0 0 0 0 0 0 0 0 0 0 0 0 0 0 0 0 0 0 0 0 0 0 0 0 0 0 0 0 -0 -0 0 0 0 0 0 0 0 0 0 0 0 0 0 0 0 0 0 0 0 0
0 0 0 0 0 0 -0 -0 0 0 0 0 0 -0 -0 -0 0 0 0 0 0 0 0 0 -0 0 0 0 0 0 0 0 0 0 0 0 0 0 0 0 0 0 0 0 0 0 0 0 0 0 0 0 0 0
0 0 0 0 0 0 0 -0 0 0 0 0 0 -0 -0 -0 -0 0 0 0 0 0 0 0 0 0 0 0 0 0 0 0 0 0 0 0 0 0 0 -0 0 0 0 0 0 0 0 0 0 0 0 0 0 0
0 0 0 0 0 0 0 0 -0 -0 0 0 0 -0 -0 -0 -0 -0 0 0 0 0 0 -0 0 0 0 0 0 0 0 0 0 0 0 0 0 0 0 0 0 0 0 0 0 0 0 0 0 0 0 0 0 0
0 0 0 0 0 0 0 0 -0 0 0 0 0 0 0 0 0 0 -0 0 0 0 0 0 -0 0 0 0 0 0 0 0 0 0 0 0 0 0 0 0 0 0 0 0 0 0 0 0 0 0 0 0 0 0
0 0 0 0 0 0 0 0 0 -0 0 -0 -0 -0 -0 -0 -0 -0 -0 -0 -0 0 0 0 -0 -0 0 0 0 0 0 0 0 0 -0 -0 0 -0 0 0 0 0 0 0 0 0 0 0 0 0 0 0 0 0
0 0 0 0 0 0 0 0 0 0 0 0 -0 -0 -0 -0 0 -0 0 -0 -0 -0 0 0 0 -0 -0 -0 -0 -0 0 -0 -0 -0 -0 -0 -0 -0 0 0 0 0 0 0 0 -0 -0 -0 -0 0 0 0 0 0
0 0 0 0 0 0 0 0 0 0 0 0 0 -0 -0 -0 -0 0 0 -0 -0 -0 0 0 0 -0 -0 -0 -0 -0 -0 -0 -0 -0 -0 -0 -0 -0 -0 -0 0 -0 -0 -0 -0 0 -0 0 -0 -0 -0 -0 -0 -0
0 0 0 0 0 0 0 0 0 0 0 -0 -0 -0 0 0 0 0 0 -0 0 0 0 0 0 0 -0 -0 -0 -0 -0 -0 -0 -0 -0 0 -0 -0 -0 -0 0 0 0 -0 -0 -0 0 -0 0 0 -0 -0 0 0
0 0 0 0 0 0 0 0 0 0 0 0 0 0 0 0 0 0 0 0 0 0 0 0 0 0 -0 0 0 -0 -0 -0 -0 -0 -0 -0 -0 0 -0 -0 0 0 0 0 -0 -0 -0 -0 -0 -0 -0 -0 0 -0
0 0 0 0 0 0 0 0 0 0 0 0 0 0 0 0 0 0 0 0 0 0 0 0 0 0 -0 0 0 -0 0 -0 0 0 0 0 0 0 0 0 0 0 0 -0 0 -0 -0 -0 -0 -0 -0 -0 -0 -0
0 0 0 0 0 0 0 0 0 0 0 0 0 0 0 0 0 0 0 0 0 0 0 -0 0 -0 0 -0 -0 0 0 0 0 0 0 0 -0 -0 0 0 0 0 0 -0 0 -0 -0 -0 -0 -0 0 0 -0 -0
0 0 0 0 0 0 0 0 0 0 0 0 0 0 0 0 0 0 0 0 0 0 0 0 0 0 0 0 0 0 0 -0 0 0 -0 -0 0 0 -0 0 0 0 0 0 0 0 0 0 0 0 0 0 0 0
0 0 0 0 0 0 0 0 0 0 0 0 0 0 0 0 0 0 0 0 0 0 0 0 0 0 0 0 0 0 0 0 0 0 0 0 0 0 0 0 0 0 0 0 0 0 0 0 0 0 0 0 0 -0
0 0 0 0 0 0 0 0 0 0 0 0 0 0 0 0 0 0 0 0 0 0 0 0 0 0 0 0 0 0 0 0 0 0 0 0 0 0 0 0 0 0 0 0 0 0 0 0 0 0 0 0 0 0
0 0 0 0 0 0 0 0 0 0 0 0 0 0 0 0 0 0 0 0 0 0 0 0 0 0 0 0 0 0 0 0 0 0 0 0 0 0 0 0 0 0 0 0 0 0 0 0 0 -0 -0 -0 -0 -0
0 0 0 0 0 0 0 0 0 0 0 0 0 0 0 0 0 0 0 0 0 0 0 0 0 0 0 0 0 0 0 0 0 0 0 0 0 0 0 0 0 0 0 0 0 0 0 0 0 -0 -0 -0 -0 -0
0 0 0 0 0 0 0 0 0 0 0 0 0 0 0 0 0 0 0 0 0 0 0 0 0 0 0 0 0 0 0 0 0 0 0 0 0 0 0 0 0 0 0 0 0 0 0 0 -0 -0 -0 -0 -0 -0
0 0 0 0 0 0 0 0 0 0 0 0 0 0 0 0 0 0 0 0 0 0 0 0 0 0 0 0 0 0 0 0 0 0 0 0 0 0 0 0 0 0 0 0 0 0 0 0 0 -0 -0 0 -0 0
0 0 0 0 0 0 0 0 0 0 0 0 0 0 0 0 0 0 0 0 0 0 0 0 0 0 0 0 0 0 0 0 0 0 0 0 0 0 0 0 0 0 0 0 0 0 -0 -0 0 0 0 0 0 -0
0 0 0 0 0 0 0 0 0 0 0 0 0 0 0 0 0 0 0 0 0 0 0 0 0 0 0 0 0 0 0 0 0 0 0 0 0 0 0 0 0 0 0 0 -0 -0 -0 -0 0 0 0 0 0 0
0 0 0 0 0 0 0 0 0 0 0 0 0 0 0 0 0 0 0 0 0 0 0 0 0 0 0 0 0 0 0 0 0 0 0 0 0 0 0 0 0 0 0 0 0 0 0 0 0 0 0 0 0 0
0 0 0 0 0 0 0 0 0 0 0 0 0 0 0 0 0 0 0 0 0 0 0 0 0 0 0 0 0 0 0 0 0 0 0 0 0 0 0 0 0 0 0 0 0 0 0 0 0 0 0 0 0 0
0 0 0 0 0 0 0 0 0 0 0 0 0 0 0 0 0 0 0 0 0 0 0 0 0 0 0 0 0 0 0 0 0 0 0 0 0 0 0 0 0 0 0 0 0 0 0 0 0 0 0 0 0 0
0 0 0 0 0 0 0 0 0 0 0 0 0 0 0 0 0 0 0 0 0 0 0 0 0 0 0 0 0 0 0 0 0 0 0 0 0 0 0 0 0 0 0 0 0 0 0 0 0 0 0 0 0 0
0 0 0 0 0 0 0 0 0 0 0 0 0 0 0 0 0 0 0 0 0 0 0 0 0 0 0 0 0 0 0 0 0 0 0 0 0 0 0 0 0 0 0 0 0 0 0 0 0 0 0 0 0 0
0 0 0 0 0 0 0 0 0 0 0 0 0 0 0 0 0 0 0 0 0 0 0 0 0 0 0 0 0 0 0 0 0 0 0 0 0 0 0 0 0 0 0 0 0 0 0 0 0 0 0 0 0 0
0 0 0 0 0 0 0 0 0 0 0 0 0 0 0 0 0 0 0 0 0 0 0 0 0 0 0 0 0 0 0 0 0 0 0 0 0 0 0 0 0 0 0 0 0 0 0 0 0 0 0 0 0 0
0 0 0 0 0 0 0 0 0 0 0 0 0 0 0 0 0 0 0 0 0 0 0 0 0 0 0 0 0 0 0 0 0 0 0 0 0 0 0 0 0 0 0 0 0 0 0 0 0 0 0 0 0 0
0 0 0 0 0 0 0 0 0 0 0 0 0 0 0 0 0 0 0 0 0 0 0 0 0 0 0 0 0 0 0 0 0 0 0 0 0 0 0 0 0 0 0 0 0 0 0 0 0 0 0 0 0 0
0 0 0 0 0 0 0 0 0 0 0 0 0 0 0 0 0 0 0 0 0 0 0 0 0 0 0 0 0 0 0 0 0 0 0 0 0 0 0 0 0 -0 0 0 0 0 0 0 0 0 0 0 0 0
0 0 0 0 0 0 0 0 0 0 0 0 0 0 0 0 0 0 0 0 0 0 0 0 0 0 0 0 0 0 0 0 0 0 0 0 0 0 0 0 0 0 0 0 0 0 0 0 0 0 0 0 0 0
0 0 0 0 0 0 0 0 0 0 0 0 0 0 0 0 0 0 0 0 0 0 0 0 0 0 0 0 0 0 0 0 0 0 0 0 0 0 0 0 0 0 0 0 0 0 0 0 0 0 0 0 0 0
Wind_Speed_500mb
55 51 49 35 35 39 31 28 24 19 16 20 22 23 21 16 9 7 8 3 3 11 12 6 5 2 2 5 5 1 5 8 8 8 6 4 5 7 4 5 7 8 9 4 6 7 13 17 8 11 9 19 17 11
57 54 52 45 37 41 37 32 28 21 14 11 11 12 14 15 14 11 6 11 14 6 12 12 12 11 10 8 6 4 3 2 3 8 4 5 4 3 4 4 6 4 11 8 15 11 9 29 9 18 20 14 16 12
61 56 54 52 43 40 42 36 32 26 19 11 5 1 4 8 8 8 7 5 6 10 12 12 8 9 8 7 8 3 3 3 4 6 13 4 4 7 6 10 4 8 13 6 6 10 32 31 33 24 21 21 18 19
65 63 58 56 52 44 42 41 35 30 23 16 9 6 6 9 8 7 4 2 2 6 8 6 11 9 6 6 5 5 7 7 10 6 5 5 5 15 5 4 7 8 17 10 10 16 15 24 32 38 38 40 31 30
68 66 64 56 57 53 47 41 38 36 30 23 17 13 9 8 6 9 8 6 9 4 6 7 9 5 8 8 5 5 7 6 4 2 4 4 6 4 3 2 7 22 13 10 14 20 19 16 4 15 22 16 19 22
69 67 63 65 57 52 49 44 39 38 33 26 20 16 11 9 6 11 4 7 3 6 2 4 4 6 3 6 6 5 6 4 3 1 3 3 5 1 1 6 23 35 45 54 40 44 40 30 22 22 22 28 27 24
65 67 65 62 63 61 52 47 40 39 34 27 23 18 13 11 10 6 2 3 7 5 2 6 3 2 5 10 8 4 1 1 1 1 4 4 6 5 3 9 12 14 22 32 44 47 37 43 27 16 19 26 32 35
62 62 63 62 57 52 50 48 44 38 35 30 25 18 18 15 17 15 19 16 18 7 3 5 3 2 10 5 4 5 3 7 2 1 2 1 3 4 10 32 38 21 20 27 23 35 43 38 31 29 28 30 36 39
58 60 59 61 56 47 45 45 44 41 39 36 32 23 28 20 15 19 22 22 22 12 7 6 7 8 13 6 5 4 1 1 3 2 3 2 3 12 21 43 38 27 19 8 9 23 33 36 33 32 32 35 39 37
61 58 56 60 57 54 47 42 43 43 38 33 31 15 11 13 19 9 12 8 10 12 12 8 14 4 10 9 4 5 2 2 1 3 9 3 8 50 56 57 49 39 24 20 17 14 17 21 18 19 25 26 32 30
64 59 57 56 57 54 45 43 52 55 41 35 20 15 16 21 18 8 4 4 6 3 12 11 19 10 11 6 6 3 4 1 0 7 5 5 8 12 5 3 5 11 30 51 54 43 26 23 25 32 31 30 31 30
66 63 59 57 62 60 55 57 58 52 28 28 18 22 21 10 6 7 3 2 5 10 12 14 14 14 15 9 9 3 6 3 8 4 6 6 9 19 16 14 8 3 4 6 16 28 40 41 37 32 27 27 29 28
71 65 63 61 68 69 65 60 51 47 38 28 12 12 10 6 3 13 14 7 5 17 22 17 7 12 12 8 13 6 6 8 2 4 7 10 16 7 5 6 9 5 6 12 14 9 4 13 19 19 18 19 21 24
66 70 64 62 69 73 71 62 55 51 35 11 14 4 10 8 10 9 7 8 14 16 47 41 17 3 8 7 5 9 2 3 5 4 11 6 8 4 8 13 11 11 10 10 6 1 7 10 12 14 17 21 22 21
65 68 67 63 62 82 77 69 59 57 19 12 13 10 12 11 7 8 11 14 18 48 61 26 15 7 5 8 4 8 6 6 11 10 7 6 2 1 5 7 9 11 14 14 11 11 12 10 11 12 14 15 18 21
65 60 74 69 64 79 78 68 79 60 20 12 13 4 7 6 7 14 25 17 38 65 36 9 9 7 2 9 6 13 12 12 8 8 15 6 1 3 6 6 5 5 8 14 17 17 17 17 19 17 16 17 19 20
74 57 78 76 69 76 82 75 47 17 18 15 14 30 25 3 8 19 29 29 59 47 5 9 9 11 10 5 5 9 11 7 13 11 9 5 3 3 7 8 11 16 18 20 22 24 25 28 31 34 35 31 34 33
77 80 77 85 77 82 78 50 38 23 19 12 12 21 40 13 13 21 29 49 48 25 16 8 19 6 10 11 7 9 32 26 9 13 13 4 6 7 8 13 20 23 22 22 22 25 30 39 46 46 44 42 47 48
87 78 82 92 97 70 34 34 31 14 12 18 21 24 24 18 18 18 36 68 40 32 11 14 6 7 8 17 16 13 10 8 10 11 6 7 12 17 26 26 23 25 25 27 42 54 58 59 59 57 58 59 58 50
86 82 87 101 105 37 18 12 36 16 18 22 27 32 17 12 25 28 36 67 38 16 9 6 10 14 13 15 12 12 11 8 7 12 20 24 29 33 35 34 34 38 47 58 66 70 67 68 65 63 62 60 59 51
75 86 92 117 84 32 21 20 16 14 23 15 26 30 14 20 15 24 29 55 23 13 11 26 30 39 44 40 31 29 31 34 33 35 44 50 47 45 44 45 54 62 66 65 64 66 63 58 52 47 46 45 48 50
87 108 89 88 41 24 14 21 18 30 21 22 37 22 13 14 14 19 27 24 19 27 31 39 48 58 65 65 61 61 59 55 56 59 57 53 54 54 55 56 58 60 61 59 51 38 27 27 29 31 31 29 34 37
101 92 66 33 13 10 11 40 10 11 9 16 24 9 3 8 18 29 15 18 24 41 59 62 62 63 67 66 64 66 65 58 60 62 62 61 59 56 54 55 54 48 36 27 19 16 19 21 23 26 28 27 26 24
83 64 23 19 13 11 27 7 11 16 14 6 8 7 4 11 21 9 8 15 42 42 48 54 57 67 72 73 73 70 62 58 57 58 55 53 50 44 37 32 21 14 12 12 16 22 26 28 29 30 30 30 31 29
22 17 25 10 13 16 11 9 4 5 7 7 9 2 7 15 5 7 8 15 47 64 62 61 60 60 63 67 58 49 43 40 40 39 38 33 27 23 18 14 15 16 15 14 16 21 25 27 28 30 32 31 29 28
10 10 12 11 12 11 14 14 16 15 10 8 3 10 11 6 6 12 8 24 45 37 36 42 44 44 44 43 38 35 32 29 28 26 24 22 20 18 14 11 12 13 15 16 16 19 21 22 22 23 24 25 25 25
11 9 8 12 28 31 14 13 15 10 10 13 10 10 7 9 13 8 16 22 17 20 26 25 21 19 18 17 15 15 16 18 19 19 15 16 19 17 14 9 9 12 15 15 15 15 16 18 19 20 21 22 22 21
9 22 18 30 15 8 14 8 12 14 11 24 26 11 23 21 12 7 10 15 16 16 15 14 14 13 11 10 6 6 8 11 13 14 15 15 14 13 9 9 9 10 10 11 8 9 12 14 16 18 19 20 23 24
5 25 36 7 9 8 10 12 14 15 44 50 13 9 11 10 10 9 12 13 17 18 17 15 15 16 12 7 6 6 6 8 10 12 11 10 10 8 6 6 5 6 2 7 11 11 13 15 18 21 23 24 26 25
7 3 9 5 6 6 2 11 23 52 38 41 30 22 18 15 14 16 15 17 19 19 17 15 15 15 13 11 8 7 5 5 5 8 7 6 3 1 4 5 2 9 14 14 15 17 20 21 21 23 22 21 22 21
16 8 10 13 7 7 14 37 49 52 37 22 21 19 23 19 20 16 14 16 17 17 17 16 14 12 10 11 10 8 6 4 4 5 7 7 8 10 8 12 20 20 18 19 20 20 20 19 19 18 18 19 22 22
21 13 2 7 6 28 25 11 11 14 12 11 12 12 14 11 9 9 12 15 16 18 17 15 12 11 10 10 9 8 9 8 9 12 15 17 19 21 26 26 24 22 21 20 20 19 18 17 18 20 22 23 23 23
2 8 6 12 9 3 8 11 11 11 17 11 11 10 9 8 9 8 11 12 13 16 17 16 14 13 13 14 15 16 17 20 22 22 22 22 23 23 22 21 20 18 16 16 19 21 22 21 21 21 21 21 21 23
Wind_Direction_500mb
192 193 195 198 192 190 183 175 167 154 131 104 90 81 78 74 72 55 47 127 146 113 128 107 106 95 82 48 118 125 27 3 39 62 104 216 111 220 66 220 184 160 128 165 83 61 286 181 124 167 186 153 162 162
194 196 196 198 195 195 193 189 184 178 167 135 107 91 75 65 55 54 49 72 111 130 131 119 99 90 86 71 83 75 109 28 114 85 60 97 106 97 139 272 324 311 179 180 184 211 249 197 221 201 176 172 197 199
197 198 198 199 199 197 200 199 196 197 199 192 180 119 53 38 34 24 36 67 93 117 113 141 126 117 88 100 98 98 120 107 111 96 145 155 127 128 156 239 209 251 173 204 89 248 236 241 237 243 232 238 251 265
201 201 202 201 202 203 202 207 207 210 217 220 225 262 310 332 342 347 344 310 152 131 123 154 172 160 150 141 117 94 131 135 136 124 115 130 142 195 220 230 199 206 148 184 259 272 274 253 235 242 252 258 264 279
205 205 204 202 205 205 208 211 213 218 224 234 247 259 273 291 312 334 333 281 235 221 163 131 159 149 167 172 161 142 146 140 127 92 87 228 154 121 4 28 248 187 195 181 235 217 204 228 196 230 240 268 270 275
208 208 207 204 206 206 206 215 220 223 225 227 231 240 254 264 253 345 317 43 170 193 222 112 163 197 166 137 162 133 126 141 152 201 214 193 155 185 189 248 252 222 230 240 244 266 262 255 249 241 253 276 275 265
209 209 210 209 208 208 204 207 215 224 225 221 223 232 240 243 256 266 312 70 92 92 337 97 223 128 182 171 172 180 195 213 28 103 246 311 169 225 205 241 251 236 249 254 254 257 261 255 254 261 257 265 257 259
209 210 208 209 209 204 202 205 210 212 213 214 203 214 230 238 241 236 255 250 253 273 257 111 292 307 173 156 150 188 198 213 214 204 215 14 245 218 251 243 251 258 259 267 261 243 250 257 259 266 264 260 258 261
204 208 207 206 205 195 190 201 206 210 209 204 207 215 208 228 227 252 251 251 222 210 194 174 161 227 174 131 103 95 103 250 303 87 71 303 263 230 232 251 264 267 240 251 275 236 240 248 253 257 260 262 265 268
203 204 206 202 201 193 190 198 196 202 197 187 184 189 205 210 212 188 163 179 167 202 214 192 145 155 169 157 87 97 40 48 229 281 313 138 259 259 257 257 262 258 249 243 246 231 231 239 247 260 271 275 280 283
201 202 202 199 192 186 186 173 181 189 187 181 179 198 189 162 155 171 161 180 195 251 209 166 175 144 175 123 161 159 175 0 186 268 125 295 278 248 270 321 283 252 247 247 247 247 251 252 273 291 291 288 291 293
198 199 199 197 185 181 178 180 187 187 187 184 177 138 143 179 144 108 191 316 226 222 178 159 141 127 141 141 114 120 139 55 235 329 63 271 252 255 254 251 257 280 327 249 233 231 238 254 270 281 283 282 285 290
197 197 198 195 184 180 181 192 195 197 178 156 181 158 157 161 73 187 196 236 239 180 172 152 131 140 128 146 91 96 117 216 153 54 235 234 264 222 266 272 205 189 123 104 106 120 215 268 277 281 286 290 290 290
199 195 198 195 186 181 181 191 186 179 167 185 171 201 179 200 240 196 186 180 171 167 156 146 118 107 124 87 133 101 272 68 28 304 238 249 280 311 257 218 203 203 183 166 161 341 309 305 301 298 298 297 301 297
198 194 195 199 190 180 181 191 184 177 185 194 186 221 209 210 193 181 178 152 151 154 149 123 95 131 32 93 49 106 55 258 212 231 232 262 108 208 199 194 209 216 213 220 242 287 297 299 302 301 303 310 311 307
192 191 197 193 189 180 181 188 188 179 197 210 226 166 186 158 198 184 185 166 157 157 153 139 116 83 223 133 102 214 136 223 247 222 244 205 275 105 143 171 200 223 225 229 245 272 277 274 277 283 285 298 299 308
186 191 194 188 183 179 183 184 181 186 201 207 218 213 195 206 181 183 174 169 163 165 180 132 131 191 115 62 240 193 209 220 229 215 161 160 197 211 225 240 262 263 260 260 264 274 283 286 285 283 282 285 281 284
193 193 187 182 175 172 184 180 181 209 210 183 175 191 194 206 167 161 167 168 164 195 161 196 136 129 185 178 237 231 233 239 233 177 171 221 248 253 290 287 269 262 268 272 279 292 300 300 296 297 292 288 280 275
196 193 184 179 177 169 171 197 197 201 181 167 178 176 184 203 202 172 175 176 178 183 176 166 117 189 217 219 235 272 253 226 209 224 240 289 274 279 303 301 285 270 266 278 295 301 300 296 292 289 285 281 278 276
200 194 185 181 179 172 176 191 197 200 170 183 181 176 166 177 194 192 185 185 183 174 200 191 208 219 214 234 245 253 252 248 258 288 292 296 293 291 289 281 272 270 277 289 294 296 296 295 293 285 279 277 278 278
186 183 183 179 171 176 186 162 168 171 170 169 176 167 157 172 170 180 184 186 188 216 233 219 220 233 248 254 255 258 259 271 280 285 293 295 294 288 278 272 277 282 286 289 292 292 295 294 292 290 289 286 279 275
177 171 164 173 181 166 165 169 157 149 150 143 154 163 146 161 164 172 170 186 223 220 220 228 231 244 251 255 260 267 274 276 280 283 286 288 287 285 282 283 284 285 290 291 288 294 298 302 310 310 308 306 297 293
168 165 170 166 131 137 124 143 117 120 115 166 142 99 149 159 169 162 209 229 237 232 238 241 245 251 256 260 263 266 269 272 275 280 282 283 282 284 286 286 288 288 284 275 285 302 318 319 321 324 327 328 324 318
172 168 157 137 124 114 139 118 119 109 110 114 139 146 198 163 160 198 244 238 239 242 244 249 249 250 254 257 261 265 271 275 278 278 277 277 278 280 283 287 280 260 259 278 295 305 308 313 319 320 319 321 322 323
153 164 145 103 130 121 116 132 101 90 135 179 114 138 190 155 154 203 233 257 238 242 245 247 246 246 247 255 262 266 269 271 273 275 275 270 263 261 250 252 268 279 291 305 309 310 312 316 317 315 316 322 328 329
168 124 136 138 149 129 162 136 176 163 131 124 136 126 147 124 145 238 222 235 227 230 232 238 241 245 249 253 263 267 269 269 268 265 264 255 238 228 252 265 274 277 295 308 317 318 320 324 326 326 325 329 332 334
139 133 122 119 137 131 99 94 126 113 128 148 168 158 146 172 227 238 224 222 215 223 228 232 233 236 241 244 249 257 260 259 255 255 244 229 219 246 247 250 281 295 308 320 328 329 333 338 346 352 353 355 357 359
117 154 153 164 138 138 125 124 143 167 151 147 135 168 174 192 218 186 195 200 196 195 190 186 190 198 197 204 227 257 251 237 234 233 231 231 224 218 254 290 311 311 330 326 334 8 6 12 20 26 30 34 38 41
100 143 135 92 116 150 174 158 184 156 152 164 148 169 168 129 138 146 154 154 164 167 167 167 165 162 161 159 185 207 214 216 201 196 207 225 234 252 284 313 348 7 327 53 54 54 60 61 61 59 60 59 59 56
52 126 107 115 122 118 98 154 136 147 147 153 148 125 114 113 123 131 139 147 152 156 156 157 159 157 158 175 193 194 210 224 228 217 208 203 197 102 49 34 183 105 79 77 81 84 84 80 74 69 66 64 61 54
359 14 74 45 70 33 119 128 131 132 126 107 113 115 115 123 126 118 137 148 152 154 154 155 154 154 161 179 184 180 175 176 167 143 131 121 104 96 124 128 100 97 98 98 97 93 87 86 80 73 67 60 57 51
1 24 100 110 101 130 114 123 91 77 78 78 79 91 113 113 92 121 120 143 158 168 165 158 150 142 139 137 139 145 140 128 128 122 117 117 119 115 103 101 104 103 102 103 100 93 86 77 74 69 64 61 56 49
9 67 89 102 117 215 162 114 69 84 55 69 63 74 71 85 108 117 120 137 158 165 167 166 154 140 134 125 123 123 120 119 116 115 112 108 103 101 101 98 96 94 93 94 93 88 84 78 75 70 63 55 47 42
Wind_Speed_850mb
55 51 49 35 35 39 31 28 24 19 16 20 22 23 21 16 9 7 8 3 3 11 12 6 5 2 2 5 5 1 5 8 8 8 6 4 5 7 4 5 7 8 9 4 6 7 13 17 8 11 9 19 17 11
57 54 52 45 37 41 37 32 28 21 14 11 11 12 14 15 14 11 6 11 14 6 12 12 12 11 10 8 6 4 3 2 3 8 4 5 4 3 4 4 6 4 11 8 15 11 9 29 9 18 20 14 16 12
61 56 54 52 43 40 42 36 32 26 19 11 5 1 4 8 8 8 7 5 6 10 12 12 8 9 8 7 8 3 3 3 4 6 13 4 4 7 6 10 4 8 13 6 6 10 32 31 33 24 21 21 18 19
65 63 58 56 52 44 42 41 35 30 23 16 9 6 6 9 8 7 4 2 2 6 8 6 11 9 6 6 5 5 7 7 10 6 5 5 5 15 5 4 7 8 17 10 10 16 15 24 32 38 38 40 31 30
68 66 64 56 57 53 47 41 38 36 30 23 17 13 9 8 6 9 8 6 9 4 6 7 9 5 8 8 5 5 7 6 4 2 4 4 6 4 3 2 7 22 13 10 14 20 19 16 4 15 22 16 19 22
69 67 63 65 57 52 49 44 39 38 33 26 20 16 11 9 6 11 4 7 3 6 2 4 4 6 3 6 6 5 6 4 3 1 3 3 5 1 1 6 23 35 45 54 40 44 40 30 22 22 22 28 27 24
65 67 65 62 63 61 52 47 40 39 34 27 23 18 13 11 10 6 2 3 7 5 2 6 3 2 5 10 8 4 1 1 1 1 4 4 6 5 3 9 12 14 22 32 44 47 37 43 27 16 19 26 32 35
62 62 63 62 57 52 50 48 44 38 35 30 25 18 18 15 17 15 19 16 18 7 3 5 3 2 10 5 4 5 3 7 2 1 2 1 3 4 10 32 38 21 20 27 23 35 43 38 31 29 28 30 36 39
58 60 59 61 56 47 45 45 44 41 39 36 32 23 28 20 15 19 22 22 22 12 7 6 7 8 13 6 5 4 1 1 3 2 3 2 3 12 21 43 38 27 19 8 9 23 33 36 33 32 32 35 39 37
61 58 56 60 57 54 47 42 43 43 38 33 31 15 11 13 19 9 12 8 10 12 12 8 14 4 10 9 4 5 2 2 1 3 9 3 8 50 56 57 49 39 24 20 17 14 17 21 18 19 25 26 32 30
64 59 57 56 57 54 45 43 52 55 41 35 20 15 16 21 18 8 4 4 6 3 12 11 19 10 11 6 6 3 4 1 0 7 5 5 8 12 5 3 5 11 30 51 54 43 26 23 25 32 31 30 31 30
66 63 59 57 62 60 55 57 58 52 28 28 18 22 21 10 6 7 3 2 5 10 12 14 14 14 15 9 9 3 6 3 8 4 6 6 9 19 16 14 8 3 4 6 16 28 40 41 37 32 27 27 29 28
71 65 63 61 68 69 65 60 51 47 38 28 12 12 10 6 3 13 14 7 5 17 22 17 7 12 12 8 13 6 6 8 2 4 7 10 16 7 5 6 9 5 6 12 14 9 4 13 19 19 18 19 21 24
66 70 64 62 69 73 71 62 55 51 35 11 14 4 10 8 10 9 7 8 14 16 47 41 17 3 8 7 5 9 2 3 5 4 11 6 8 4 8 13 11 11 10 10 6 1 7 10 12 14 17 21 22 21
65 68 67 63 62 82 77 69 59 57 19 12 13 10 12 11 7 8 11 14 18 48 61 26 15 7 5 8 4 8 6 6 11 10 7 6 2 1 5 7 9 11 14 14 11 11 12 10 11 12 14 15 18 21
65 60 74 69 64 79 78 68 79 60 20 12 13 4 7 6 7 14 25 17 38 65 36 9 9 7 2 9 6 13 12 12 8 8 15 6 1 3 6 6 5 5 8 14 17 17 17 17 19 17 16 17 19 20
74 57 78 76 69 76 82 75 47 17 18 15 14 30 25 3 8 19 29 29 59 47 5 9 9 11 10 5 5 9 11 7 13 11 9 5 3 3 7 8 11 16 18 20 22 24 25 28 31 34 35 31 34 33
77 80 77 85 77 82 78 50 38 23 19 12 12 21 40 13 13 21 29 49 48 25 16 8 19 6 10 11 7 9 32 26 9 13 13 4 6 7 8 13 20 23 22 22 22 25 30 39 46 46 44 42 47 48
87 78 82 92 97 70 34 34 31 14 12 18 21 24 24 18 18 18 36 68 40 32 11 14 6 7 8 17 16 13 10 8 10 11 6 7 12 17 26 26 23 25 25 27 42 54 58 59 59 57 58 59 58 50
86 82 87 101 105 37 18 12 36 16 18 22 27 32 17 12 25 28 36 67 38 16 9 6 10 14 13 15 12 12 11 8 7 12 20 24 29 33 35 34 34 38 47 58 66 70 67 68 65 63 62 60 59 51
75 86 92 117 84 32 21 20 16 14 23 15 26 30 14 20 15 24 29 55 23 13 11 26 30 39 44 40 31 29 31 34 33 35 44 50 47 45 44 45 54 62 66 65 64 66 63 58 52 47 46 45 48 50
87 108 89 88 41 24 14 21 18 30 21 22 37 22 13 14 14 19 27 24 19 27 31 39 48 58 65 65 61 61 59 55 56 59 57 53 54 54 55 56 58 60 61 59 51 38 27 27 29 31 31 29 34 37
101 92 66 33 13 10 11 40 10 11 9 16 24 9 3 8 18 29 15 18 24 41 59 62 62 63 67 66 64 66 65 58 60 62 62 61 59 56 54 55 54 48 36 27 19 16 19 21 23 26 28 27 26 24
83 64 23 19 13 11 27 7 11 16 14 6 8 7 4 11 21 9 8 15 42 42 48 54 57 67 72 73 73 70 62 58 57 58 55 53 50 44 37 32 21 14 12 12 16 22 26 28 29 30 30 30 31 29
22 17 25 10 13 16 11 9 4 5 7 7 9 2 7 15 5 7 8 15 47 64 62 61 60 60 63 67 58 49 43 40 40 39 38 33 27 23 18 14 15 16 15 14 16 21 25 27 28 30 32 31 29 28
10 10 12 11 12 11 14 14 16 15 10 8 3 10 11 6 6 12 8 24 45 37 36 42 44 44 44 43 38 35 32 29 28 26 24 22 20 18 14 11 12 13 15 16 16 19 21 22 22 23 24 25 25 25
11 9 8 12 28 31 14 13 15 10 10 13 10 10 7 9 13 8 16 22 17 20 26 25 21 19 18 17 15 15 16 18 19 19 15 16 19 17 14 9 9 12 15 15 15 15 16 18 19 20 21 22 22 21
9 22 18 30 15 8 14 8 12 14 11 24 26 11 23 21 12 7 10 15 16 16 15 14 14 13 11 10 6 6 8 11 13 14 15 15 14 13 9 9 9 10 10 11 8 9 12 14 16 18 19 20 23 24
5 25 36 7 9 8 10 12 14 15 44 50 13 9 11 10 10 9 12 13 17 18 17 15 15 16 12 7 6 6 6 8 10 12 11 10 10 8 6 6 5 6 2 7 11 11 13 15 18 21 23 24 26 25
7 3 9 5 6 6 2 11 23 52 38 41 30 22 18 15 14 16 15 17 19 19 17 15 15 15 13 11 8 7 5 5 5 8 7 6 3 1 4 5 2 9 14 14 15 17 20 21 21 23 22 21 22 21
16 8 10 13 7 7 14 37 49 52 37 22 21 19 23 19 20 16 14 16 17 17 17 16 14 12 10 11 10 8 6 4 4 5 7 7 8 10 8 12 20 20 18 19 20 20 20 19 19 18 18 19 22 22
21 13 2 7 6 28 25 11 11 14 12 11 12 12 14 11 9 9 12 15 16 18 17 15 12 11 10 10 9 8 9 8 9 12 15 17 19 21 26 26 24 22 21 20 20 19 18 17 18 20 22 23 23 23
2 8 6 12 9 3 8 11 11 11 17 11 11 10 9 8 9 8 11 12 13 16 17 16 14 13 13 14 15 16 17 20 22 22 22 22 23 23 22 21 20 18 16 16 19 21 22 21 21 21 21 21 21 23
Wind_Direction_850mb
192 193 195 198 192 190 183 175 167 154 131 104 90 81 78 74 72 55 47 127 146 113 128 107 106 95 82 48 118 125 27 3 39 62 104 216 111 220 66 220 184 160 128 165 83 61 286 181 124 167 186 153 162 162
194 196 196 198 195 195 193 189 184 178 167 135 107 91 75 65 55 54 49 72 111 130 131 119 99 90 86 71 83 75 109 28 114 85 60 97 106 97 139 272 324 311 179 180 184 211 249 197 221 201 176 172 197 199
197 198 198 199 199 197 200 199 196 197 199 192 180 119 53 38 34 24 36 67 93 117 113 141 126 117 88 100 98 98 120 107 111 96 145 155 127 128 156 239 209 251 173 204 89 248 236 241 237 243 232 238 251 265
201 201 202 201 202 203 202 207 207 210 217 220 225 262 310 332 342 347 344 310 152 131 123 154 172 160 150 141 117 94 131 135 136 124 115 130 142 195 220 230 199 206 148 184 259 272 274 253 235 242 252 258 264 279
205 205 204 202 205 205 208 211 213 218 224 234 247 259 273 291 312 334 333 281 235 221 163 131 159 149 167 172 161 142 146 140 127 92 87 228 154 121 4 28 248 187 195 181 235 217 204 228 196 230 240 268 270 275
208 208 207 204 206 206 206 215 220 223 225 227 231 240 254 264 253 345 317 43 170 193 222 112 163 197 166 137 162 133 126 141 152 201 214 193 155 185 189 248 252 222 230 240 244 266 262 255 249 241 253 276 275 265
209 209 210 209 208 208 204 207 215 224 225 221 223 232 240 243 256 266 312 70 92 92 337 97 223 128 182 171 172 180 195 213 28 103 246 311 169 225 205 241 251 236 249 254 254 257 261 255 254 261 257 265 257 259
209 210 208 209 209 204 202 205 210 212 213 214 203 214 230 238 241 236 255 250 253 273 257 111 292 307 173 156 150 188 198 213 214 204 215 14 245 218 251 243 251 258 259 267 261 243 250 257 259 266 264 260 258 261
204 208 207 206 205 195 190 201 206 210 209 204 207 215 208 228 227 252 251 251 222 210 194 174 161 227 174 131 103 95 103 250 303 87 71 303 263 230 232 251 264 267 240 251 275 236 240 248 253 257 260 262 265 268
203 204 206 202 201 193 190 198 196 202 197 187 184 189 205 210 212 188 163 179 167 202 214 192 145 155 169 157 87 97 40 48 229 281 313 138 259 259 257 257 262 258 249 243 246 231 231 239 247 260 271 275 280 283
201 202 202 199 192 186 186 173 181 189 187 181 179 198 189 162 155 171 161 180 195 251 209 166 175 144 175 123 161 159 175 0 186 268 125 295 278 248 270 321 283 252 247 247 247 247 251 252 273 291 291 288 291 293
198 199 199 197 185 181 178 180 187 187 187 184 177 138 143 179 144 108 191 316 226 222 178 159 141 127 141 141 114 120 139 55 235 329 63 271 252 255 254 251 257 280 327 249 233 231 238 254 270 281 283 282 285 290
197 197 198 195 184 180 181 192 195 197 178 156 181 158 157 161 73 187 196 236 239 180 172 152 131 140 128 146 91 96 117 216 153 54 235 234 264 222 266 272 205 189 123 104 106 120 215 268 277 281 286 290 290 290
199 195 198 195 186 181 181 191 186 179 167 185 171 201 179 200 240 196 186 180 171 167 156 146 118 107 124 87 133 101 272 68 28 304 238 249 280 311 257 218 203 203 183 166 161 341 309 305 301 298 298 297 301 297
198 194 195 199 190 180 181 191 184 177 185 194 186 221 209 210 193 181 178 152 151 154 149 123 95 131 32 93 49 106 55 258 212 231 232 262 108 208 199 194 209 216 213 220 242 287 297 299 302 301 303 310 311 307
192 191 197 193 189 180 181 188 188 179 197 210 226 166 186 158 198 184 185 166 157 157 153 139 116 83 223 133 102 214 136 223 247 222 244 205 275 105 143 171 200 223 225 229 245 272 277 274 277 283 285 298 299 308
186 191 194 188 183 179 183 184 181 186 201 207 218 213 195 206 181 183 174 169 163 165 180 132 131 191 115 62 240 193 209 220 229 215 161 160 197 211 225 240 262 263 260 260 264 274 283 286 285 283 282 285 281 284
193 193 187 182 175 172 184 180 181 209 210 183 175 191 194 206 167 161 167 168 164 195 161 196 136 129 185 178 237 231 233 239 233 177 171 221 248 253 290 287 269 262 268 272 279 292 300 300 296 297 292 288 280 275
196 193 184 179 177 169 171 197 197 201 181 167 178 176 184 203 202 172 175 176 178 183 176 166 117 189 217 219 235 272 253 226 209 224 240 289 274 279 303 301 285 270 266 278 295 301 300 296 292 289 285 281 278 276
200 194 185 181 179 172 176 191 197 200 170 183 181 176 166 177 194 192 185 185 183 174 200 191 208 219 214 234 245 253 252 248 258 288 292 296 293 291 289 281 272 270 277 289 294 296 296 295 293 285 279 277 278 278
186 183 183 179 171 176 186 162 168 171 170 169 176 167 157 172 170 180 184 186 188 216 233 219 220 233 248 254 255 258 259 271 280 285 293 295 294 288 278 272 277 282 286 289 292 292 295 294 292 290 289 286 279 275
177 171 164 173 181 166 165 169 157 149 150 143 154 163 146 161 164 172 170 186 223 220 220 228 231 244 251 255 260 267 274 276 280 283 286 288 287 285 282 283 284 285 290 291 288 294 298 302 310 310 308 306 297 293
168 165 170 166 131 137 124 143 117 120 115 166 142 99 149 159 169 162 209 229 237 232 238 241 245 251 256 260 263 266 269 272 275 280 282 283 282 284 286 286 288 288 284 275 285 302 318 319 321 324 327 328 324 318
172 168 157 137 124 114 139 118 119 109 110 114 139 146 198 163 160 198 244 238 239 242 244 249 249 250 254 257 261 265 271 275 278 278 277 277 278 280 283 287 280 260 259 278 295 305 308 313 319 320 319 321 322 323
153 164 145 103 130 121 116 132 101 90 135 179 114 138 190 155 154 203 233 257 238 242 245 247 246 246 247 255 262 266 269 271 273 275 275 270 263 261 250 252 268 279 291 305 309 310 312 316 317 315 316 322 328 329
168 124 136 138 149 129 162 136 176 163 131 124 136 126 147 124 145 238 222 235 227 230 232 238 241 245 249 253 263 267 269 269 268 265 264 255 238 228 252 265 274 277 295 308 317 318 320 324 326 326 325 329 332 334
139 133 122 119 137 131 99 94 126 113 128 148 168 158 146 172 227 238 224 222 215 223 228 232 233 236 241 244 249 257 260 259 255 255 244 229 219 246 247 250 281 295 308 320 328 329 333 338 346 352 353 355 357 359
117 154 153 164 138 138 125 124 143 167 151 147 135 168 174 192 218 186 195 200 196 195 190 186 190 198 197 204 227 257 251 237 234 233 231 231 224 218 254 290 311 311 330 326 334 8 6 12 20 26 30 34 38 41
100 143 135 92 116 150 174 158 184 156 152 164 148 169 168 129 138 146 154 154 164 167 167 167 165 162 161 159 185 207 214 216 201 196 207 225 234 252 284 313 348 7 327 53 54 54 60 61 61 59 60 59 59 56
52 126 107 115 122 118 98 154 136 147 147 153 148 125 114 113 123 131 139 147 152 156 156 157 159 157 158 175 193 194 210 224 228 217 208 203 197 102 49 34 183 105 79 77 81 84 84 80 74 69 66 64 61 54
359 14 74 45 70 33 119 128 131 132 126 107 113 115 115 123 126 118 137 148 152 154 154 155 154 154 161 179 184 180 175 176 167 143 131 121 104 96 124 128 100 97 98 98 97 93 87 86 80 73 67 60 57 51
1 24 100 110 101 130 114 123 91 77 78 78 79 91 113 113 92 121 120 143 158 168 165 158 150 142 139 137 139 145 140 128 128 122 117 117 119 115 103 101 104 103 102 103 100 93 86 77 74 69 64 61 56 49
9 67 89 102 117 215 162 114 69 84 55 69 63 74 71 85 108 117 120 137 158 165 167 166 154 140 134 125 123 123 120 119 116 115 112 108 103 101 101 98 96 94 93 94 93 88 84 78 75 70 63 55 47 42